Flag Weather past 2 weeks in Riffa, Bahrain

Now
73 °F

Clear.


Feels Like: 75 °F
Forecast: 72 / 81 °F
Wind: 3 mph from Southeast

Location: Bahrain International Airport

Current Time: Nov 23, 2014 at 5:45:14 AM

Latest Report: Nov 23, 2014 at 5:00 AM


Visibility: 4 mi

Pressure: 29.92 "Hg

Humidity: 74%

Dew point: 64 °F

Location of RiffaLocation

Historic Weather in Riffa — Graph

°F

Riffa temperature yesterday

Maximum temperature yesterday: 86 °F (at 12:00 PM)
Minimum temperature yesterday: 68 °F (at 6:00 AM)
Average temperature yesterday: 77 °F

Past Weeks' High & Low Weather Summary

 TemperatureHumidityPressure
High86 °F (Nov 22, 12:00 PM)78% (Nov 16, 2:00 AM)30.21 "Hg (Nov 16, 2:00 AM)
Low66 °F (Nov 8, 4:00 AM)28% (Nov 14, 11:00 AM)29.92 "Hg (Nov 22, 3:00 PM)
Average75 °F52%30.06 "Hg
* Reported Nov 8 4:00 AM — Nov 23 4:00 AM, Riffa, Weather by CustomWeather, © 2014

Note: Actual official high and low records may vary slightly from our data, if they occured in-between our weather recording intervals... More about our weather records

Advertising

Riffa weather history for previous 24 hours

 ConditionsComfort  
Time TempWeatherWind HumidityBarometerVisibility
4:00 AM
Nov 23
75 °FClear.5 mph65%29.92 "Hg4 mi
3:00 AM75 °FClear.3 mph65%29.92 "Hg4 mi
2:00 AM77 °FPassing clouds.2 mph61%29.92 "HgN/A
1:00 AM77 °FClear.7 mph57%29.92 "Hg10 mi
12:00 AM77 °FClear.8 mph61%29.92 "Hg10 mi
11:00 PM
Nov 22
77 °FClear.8 mph57%29.95 "Hg10 mi
10:30 PM77 °FClear.8 mph61%29.95 "Hg10 mi
10:00 PM77 °FClear.12 mph61%29.95 "Hg10 mi
9:00 PM77 °FClear.10 mph65%29.95 "Hg10 mi
8:00 PM77 °FClear.12 mph65%29.95 "Hg10 mi
7:00 PM77 °FClear.10 mph69%29.95 "Hg10 mi
6:00 PM77 °FClear.8 mph65%29.95 "Hg10 mi
5:00 PM77 °FClear.9 mph65%29.95 "Hg10 mi
4:00 PM79 °FSunny.9 mph54%29.92 "Hg10 mi
3:00 PM79 °FSunny.8 mph58%29.92 "Hg10 mi
2:30 PM81 °FSunny.8 mph58%29.95 "Hg10 mi
2:00 PM81 °FSunny.8 mph58%29.95 "Hg10 mi
1:00 PM86 °FPassing clouds.3 mph33%29.95 "HgN/A
12:00 PM86 °FPassing clouds.5 mph33%30.01 "HgN/A
11:00 AM82 °FSunny.2 mph42%30.04 "Hg10 mi
10:00 AM81 °FPassing clouds.6 mph54%30.04 "HgN/A
9:00 AM79 °FSunny.2 mph54%30.07 "Hg10 mi
8:00 AM75 °FClear.5 mph69%30.04 "Hg6 mi
7:30 AM73 °FClear.3 mph74%30.04 "Hg4 mi
7:00 AM72 °FClear.No wind69%30.04 "Hg4 mi
6:30 AM70 °FClear.1 mph73%30.04 "Hg4 mi
6:00 AM68 °FClear.1 mph78%30.01 "Hg4 mi
5:00 AM72 °FClear.1 mph73%30.01 "Hg4 mi
Weather by CustomWeather, © 2014

See weather overviewHow to use our weather pages